TimeCST,TemperatureF,Dew PointF,Humidity,Sea Level PressureIn,VisibilityMPH,Wind Direction,Wind SpeedMPH,Gust SpeedMPH,PrecipitationIn,Events,Conditions,WindDirDegrees,DateUTC
12:53 AM,51.1,46.9,86,29.90,7.0,East,9.2,-,N/A,,Overcast,100,2012-12-09 06:53:00
1:53 AM,51.1,48.0,89,29.88,6.0,East,4.6,-,N/A,,Overcast,100,2012-12-09 07:53:00
2:01 AM,51.8,48.2,88,29.88,6.0,East,5.8,-,N/A,,Overcast,100,2012-12-09 08:01:00
2:53 AM,51.1,48.9,92,29.86,6.0,ENE,5.8,-,0.00,,Overcast,60,2012-12-09 08:53:00
3:53 AM,52.0,48.9,89,29.85,5.0,Calm,Calm,-,N/A,,Overcast,0,2012-12-09 09:53:00
4:41 AM,51.8,50.0,94,29.84,4.0,Calm,Calm,-,0.00,Rain,Light Rain,0,2012-12-09 10:41:00
4:53 AM,52.0,50.0,93,29.83,4.0,ENE,5.8,-,0.00,Rain,Light Rain,70,2012-12-09 10:53:00
5:01 AM,51.8,51.8,100,29.85,4.0,Calm,Calm,-,0.00,Rain,Light Rain,0,2012-12-09 11:01:00
5:53 AM,52.0,51.1,97,29.83,3.0,East,4.6,-,0.01,,Overcast,80,2012-12-09 11:53:00
6:40 AM,51.8,51.8,100,29.84,3.0,Calm,Calm,-,N/A,,Overcast,0,2012-12-09 12:40:00
6:53 AM,52.0,50.0,93,29.84,3.0,ESE,3.5,-,N/A,,Overcast,120,2012-12-09 12:53:00
7:17 AM,53.6,51.8,94,29.84,2.5,SSE,6.9,-,N/A,,Overcast,150,2012-12-09 13:17:00
7:39 AM,53.6,53.6,100,29.84,3.0,SSE,5.8,-,N/A,,Overcast,150,2012-12-09 13:39:00
7:53 AM,54.0,53.1,97,29.84,2.5,SSE,5.8,-,N/A,,Overcast,150,2012-12-09 13:53:00
8:08 AM,53.6,53.6,100,29.84,3.0,SSE,3.5,-,N/A,,Overcast,150,2012-12-09 14:08:00
8:17 AM,53.6,53.6,100,29.84,3.0,Calm,Calm,-,N/A,,Overcast,0,2012-12-09 14:17:00
8:53 AM,55.9,55.0,97,29.84,7.0,SSE,3.5,-,N/A,,Overcast,150,2012-12-09 14:53:00
9:34 AM,59.0,55.4,88,29.84,10.0,South,9.2,-,N/A,,Overcast,180,2012-12-09 15:34:00
9:53 AM,59.0,57.0,93,29.84,3.0,South,13.8,-,0.02,Rain,Rain,170,2012-12-09 15:53:00
9:55 AM,59.0,57.2,94,29.84,2.5,SSE,10.4,-,0.01,Rain,Rain,160,2012-12-09 15:55:00
10:06 AM,59.0,57.2,94,29.84,8.0,South,12.7,-,0.01,Rain,Light Rain,170,2012-12-09 16:06:00
10:53 AM,61.0,59.0,93,29.82,10.0,South,4.6,-,0.01,,Scattered Clouds,180,2012-12-09 16:53:00
11:10 AM,62.6,59.0,88,29.82,10.0,South,9.2,-,N/A,,Scattered Clouds,190,2012-12-09 17:10:00
11:39 AM,62.6,57.2,82,29.81,10.0,SSW,8.1,-,N/A,,Mostly Cloudy,200,2012-12-09 17:39:00
11:53 AM,62.1,57.9,86,29.81,10.0,SSW,6.9,-,N/A,,Mostly Cloudy,210,2012-12-09 17:53:00
12:14 PM,60.8,59.0,94,29.79,3.0,South,9.2,-,0.04,Rain,Light Rain,190,2012-12-09 18:14:00
12:53 PM,63.0,60.1,90,29.77,10.0,South,9.2,-,0.04,,Overcast,180,2012-12-09 18:53:00
1:05 PM,62.6,60.8,94,29.75,10.0,South,12.7,16.1,N/A,,Overcast,180,2012-12-09 19:05:00
1:18 PM,62.6,59.0,88,29.75,10.0,South,18.4,23.0,N/A,,Overcast,190,2012-12-09 19:18:00
1:37 PM,62.6,60.8,94,29.74,10.0,South,17.3,25.3,N/A,,Overcast,190,2012-12-09 19:37:00
1:53 PM,63.0,60.1,90,29.74,10.0,South,12.7,20.7,N/A,,Overcast,190,2012-12-09 19:53:00
2:07 PM,64.4,60.8,88,29.73,10.0,South,16.1,-,N/A,,Overcast,190,2012-12-09 20:07:00
2:53 PM,64.0,61.0,90,29.73,8.0,SSW,12.7,-,N/A,,Overcast,200,2012-12-09 20:53:00
3:49 PM,64.4,62.6,94,29.72,8.0,South,12.7,-,N/A,,Overcast,180,2012-12-09 21:49:00
3:53 PM,64.0,62.1,93,29.71,8.0,South,11.5,-,N/A,,Overcast,190,2012-12-09 21:53:00
4:35 PM,60.8,57.2,88,29.78,2.0,West,23.0,36.8,0.08,Rain,Heavy Rain,280,2012-12-09 22:35:00
4:42 PM,57.2,55.4,94,29.76,1.0,WSW,9.2,25.3,0.31,Rain,Heavy Rain,250,2012-12-09 22:42:00
4:50 PM,57.2,55.4,94,29.78,1.8,SW,9.2,-,0.43,Rain,Heavy Rain,230,2012-12-09 22:50:00
4:53 PM,57.9,57.0,97,29.76,1.5,SW,4.6,-,0.50,Rain,Heavy Rain,230,2012-12-09 22:53:00
4:56 PM,57.2,57.2,100,29.76,1.5,WSW,6.9,-,0.02,Rain-Thunderstorm,Heavy Thunderstorms and Rain,240,2012-12-09 22:56:00
5:04 PM,57.2,57.2,100,29.75,3.0,SW,5.8,-,0.04,Rain-Thunderstorm,Thunderstorms and Rain,220,2012-12-09 23:04:00
5:45 PM,57.2,57.2,100,29.75,10.0,WNW,6.9,-,0.05,Rain,Light Rain,300,2012-12-09 23:45:00
5:53 PM,57.0,55.0,93,29.76,10.0,NW,11.5,-,0.05,,Overcast,310,2012-12-09 23:53:00
6:53 PM,53.1,50.0,89,29.79,10.0,NNW,18.4,24.2,0.02,,Overcast,340,2012-12-10 00:53:00
7:12 PM,51.8,50.0,94,29.80,10.0,NNW,9.2,-,0.05,,Overcast,340,2012-12-10 01:12:00
7:53 PM,52.0,48.9,89,29.80,10.0,NNW,9.2,-,0.05,,Overcast,340,2012-12-10 01:53:00
8:53 PM,51.1,46.9,86,29.81,10.0,NNW,12.7,-,N/A,,Overcast,330,2012-12-10 02:53:00
9:53 PM,48.9,45.0,86,29.83,10.0,North,17.3,-,N/A,,Overcast,350,2012-12-10 03:53:00
10:42 PM,48.2,42.8,82,29.85,10.0,North,16.1,-,N/A,,Overcast,350,2012-12-10 04:42:00
10:53 PM,46.9,43.0,86,29.86,10.0,NNW,13.8,-,N/A,,Overcast,340,2012-12-10 04:53:00
11:08 PM,46.4,42.8,87,29.85,10.0,NNW,13.8,-,N/A,,Overcast,330,2012-12-10 05:08:00
11:53 PM,46.0,39.9,79,29.86,10.0,North,15.0,21.9,N/A,,Overcast,350,2012-12-10 05:53:00